DW7898 Weather Reports


Display with metric or nautical units.
time (UTC)temp
F
wind
direction
speed
MPH
gust
MPH
rain 1hr
in
rain 24hr
in
rain mn
in
humidity
%
barometer
mb
20260510085348 65 238 4.0 14.0 0.00 0.58 0.01 75 1013.2
20260510084356 64 257 9.0 16.0 0.00 0.58 0.01 79 1013.2
20260510083341 63 257 8.0 15.0 0.00 0.58 0.01 93 1013.4
20260510082343 62 279 6.0 15.0 0.00 0.58 0.01 100 1013.4
20260510081352 61 228 12.0 17.0 0.00 0.58 0.01 100 1013.3
20260510080357 61 261 4.0 12.0 0.00 0.58 0.01 100 1013.3
20260510075350 60 289 3.0 13.0 0.00 0.58 0.01 100 1013.2
20260510074354 59 266 6.0 11.0 0.00 0.58 0.01 100 1013.3
20260510073342 58 243 2.0 5.0 0.00 0.58 0.01 100 1013.3
20260510072340 57 226 1.0 5.0 0.00 0.58 0.01 100 1013.3
20260510071345 56 236 2.0 5.0 0.00 0.58 0.01 100 1013.4
20260510070349 56 232 1.0 4.0 0.00 0.58 0.01 100 1013.3
20260510065346 55 226 3.0 6.0 0.00 0.58 0.01 100 1013.2
20260510064354 55 215 2.0 5.0 0.00 0.58 0.01 100 1013.1
20260510063342 55 211 3.0 4.0 0.00 0.58 0.01 100 1013.2
20260510062345 54 208 3.0 5.0 0.00 0.58 0.01 100 1013.2
20260510061350 54 212 3.0 5.0 0.00 0.58 0.01 100 1013.1
20260510060354 54 216 2.0 5.0 0.00 0.58 0.01 100 1013.1
20260510055352 54 218 1.0 3.0 0.00 0.58 0.01 100 1013.2
20260510054340 54 218 2.0 3.0 0.00 0.58 0.01 100 1013.2
20260510053350 54 218 1.0 4.0 0.00 0.58 0.01 100 1013.2
20260510052345 54 219 2.0 4.0 0.00 0.58 0.01 100 1013.2
20260510051353 53 238 1.0 4.0 0.00 0.58 0.01 100 1013.2
20260510050341 53 237 2.0 5.0 0.00 0.58 0.01 100 1013.2
20260510045339 53 223 1.0 4.0 0.00 0.58 0.01 100 1013.0
20260510044356 53 217 1.0 6.0 0.00 0.58 0.01 100 1012.9
20260510043341 53 230 4.0 6.0 0.00 0.58 0.01 100 1013.1
20260510042342 53 231 2.0 4.0 0.00 0.58 0.01 100 1013.1
20260510041347 54 228 1.0 4.0 0.00 0.58 0.01 100 1013.2
20260510040348 54 223 2.0 4.0 0.00 0.58 0.01 100 1013.2
20260510035354 54 223 1.0 4.0 0.00 0.58 0.01 100 1013.1
20260510034339 54 227 2.0 4.0 0.00 0.58 0.01 100 1013.1
20260510033347 54 223 1.0 4.0 0.00 0.58 0.01 100 1013.2
20260510032347 54 221 2.0 4.0 0.00 0.58 0.01 100 1013.2
20260510031353 55 221 2.0 3.0 0.00 0.58 0.01 100 1013.2
20260510030340 55 222 2.0 4.0 0.01 0.58 0.01 100 1013.2
20260510025339 55 223 2.0 4.0 0.01 0.58 0.01 100 1013.3
20260510024345 55 224 2.0 2.0 0.01 0.58 0.01 100 1013.5
20260510023353 54 223 1.0 3.0 0.01 0.58 0.01 100 1013.4
20260510022353 55 223 2.0 4.0 0.01 0.58 0.00 100 1013.7
20260510021342 55 204 0.0 0.0 0.01 0.58 0.00 100 1013.7
20260510020345 56 204 0.0 0.0 0.00 0.57 0.00 100 1013.4
20260510015349 56 203 0.0 3.0 0.00 0.57 0.00 100 1013.4
20260510014356 56 203 1.0 3.0 0.00 0.57 0.00 100 1013.4
20260510013338 56 201 0.0 0.0 0.00 0.57 0.00 100 1013.2
20260510012353 56 201 0.0 0.0 0.00 0.57 0.00 100 1013.2
20260510011357 56 201 0.0 1.0 0.00 0.57 0.00 100 1013.4
20260510010341 56 201 0.0 2.0 0.00 0.57 0.00 100 1013.2
20260510005349 56 201 0.0 1.0 0.00 0.57 0.00 100 1013.4
20260510004352 57 201 0.0 0.0 0.00 0.57 0.00 100 1013.5
20260510003352 57 201 0.0 0.0 0.00 0.57 0.00 100 1013.6
20260510002350 57 201 0.0 1.0 0.00 0.57 0.00 100 1013.7
20260510001354 57 201 0.0 1.0 0.00 0.57 0.00 100 1013.8
20260510000342 57 201 1.0 3.0 0.00 0.57 0.00 100 1014.0
20260509235349 57 201 0.0 3.0 0.00 0.57 0.00 100 1014.2
20260509234354 58 201 0.0 0.0 0.00 0.57 0.00 100 1014.1
20260509233338 58 201 0.0 0.0 0.00 0.57 0.00 100 1014.3
20260509232355 58 201 0.0 0.0 0.00 0.57 0.00 100 1014.4
20260509231344 58 201 0.0 2.0 0.00 0.57 0.00 100 1014.3
20260509230346 58 201 0.0 0.0 0.00 0.57 0.00 100 1014.3
20260509225348 58 201 0.0 0.0 0.00 0.57 0.00 100 1014.3
20260509224353 58 201 0.0 0.0 0.00 0.57 0.00 100 1014.4
20260509223334 58 201 0.0 3.0 0.00 0.57 0.00 100 1014.3
20260509222341 58 201 1.0 2.0 0.00 0.57 0.00 100 1014.4
20260509221346 58 201 1.0 3.0 0.00 0.57 0.00 100 1014.4
20260509220354 58 201 0.0 0.0 0.00 0.57 0.00 100 1014.3
20260509215352 58 201 0.0 0.0 0.00 0.57 0.57 100 1014.3
20260509214355 58 201 0.0 0.0 0.00 0.57 0.57 100 1014.4
20260509213344 58 201 0.0 2.0 0.00 0.57 0.57 100 1014.2
20260509212349 58 201 0.0 1.0 0.00 0.57 0.57 100 1014.2
20260509211336 58 201 0.0 2.0 0.00 0.57 0.57 100 1014.1
20260509210341 58 201 1.0 3.0 0.00 0.57 0.57 100 1014.2
20260509205342 59 209 0.0 0.0 0.00 0.57 0.57 100 1014.1
20260509204351 59 209 0.0 2.0 0.00 0.57 0.57 100 1014.0
20260509203340 59 209 0.0 0.0 0.00 0.57 0.57 100 1013.8
20260509202354 59 208 0.0 0.0 0.00 0.57 0.57 100 1013.5
20260509201341 59 209 0.0 1.0 0.00 0.57 0.57 100 1013.2
20260509200347 59 208 0.0 0.0 0.00 0.57 0.57 100 1013.2
20260509195348 59 207 0.0 0.0 0.00 0.57 0.57 100 1013.0
20260509194350 59 207 0.0 2.0 0.00 0.57 0.57 100 1013.1
20260509193336 59 206 1.0 3.0 0.00 0.57 0.57 100 1012.9
20260509192339 59 202 2.0 3.0 0.00 0.57 0.57 100 1012.8
20260509191350 59 159 2.0 3.0 0.00 0.57 0.57 100 1012.6
20260509190337 58 60 0.0 0.0 0.00 0.57 0.57 100 1012.1
20260509185353 58 59 0.0 2.0 0.01 0.57 0.57 100 1012.0
20260509184338 58 60 0.0 2.0 0.01 0.57 0.57 100 1011.8
20260509183344 59 60 0.0 5.0 0.01 0.57 0.57 100 1011.8
20260509182343 59 56 4.0 7.0 0.01 0.57 0.57 99 1011.4
20260509181347 59 0 1.0 5.0 0.01 0.57 0.57 99 1011.6
20260509180353 59 89 0.0 3.0 0.02 0.57 0.57 99 1011.3
20260509175356 59 59 2.0 3.0 0.02 0.57 0.57 98 1011.2
20260509174357 59 54 1.0 4.0 0.06 0.57 0.57 97 1011.3
20260509173340 59 33 4.0 7.0 0.10 0.57 0.57 96 1011.0
20260509172353 59 29 0.0 4.0 0.15 0.57 0.55 96 1011.2
20260509171354 60 358 3.0 8.0 0.20 0.57 0.55 95 1011.1
20260509170337 60 346 4.0 8.0 0.23 0.56 0.55 94 1011.6
20260509165343 60 356 2.0 5.0 0.26 0.54 0.44 94 1012.3
20260509164347 60 150 0.0 1.0 0.25 0.51 0.44 94 1012.6
20260509163353 59 151 0.0 1.0 0.24 0.46 0.44 93 1012.9
20260509162354 60 151 0.0 2.0 0.21 0.42 0.31 92 1013.4
20260509161358 60 233 1.0 3.0 0.19 0.37 0.31 92 1013.7
20260509160357 60 233 3.0 4.0 0.17 0.34 0.31 91 1013.9
20260509155402 60 238 3.0 9.0 0.13 0.28 0.21 90 1014.0
20260509154402 60 258 6.0 10.0 0.13 0.26 0.21 88 1014.0
20260509153412 61 212 8.0 13.0 0.16 0.23 0.21 87 1013.5
20260509152400 61 229 5.0 9.0 0.16 0.20 0.17 86 1013.0
20260509151417 61 193 2.0 7.0 0.14 0.18 0.17 86 1011.7
20260509150423 61 60 2.0 14.0 0.15 0.17 0.17 85 1010.4
20260509145417 61 26 6.0 14.0 0.15 0.16 0.05 84 1010.9
20260509144414 62 56 5.0 16.0 0.13 0.13 0.05 82 1011.0
20260509143421 62 85 8.0 16.0 0.07 0.07 0.05 79 1011.7
20260509142418 63 83 4.0 9.0 0.05 0.05 0.02 76 1012.8
20260509141422 64 137 4.0 7.0 0.04 0.04 0.02 72 1013.4
20260509140409 65 111 1.0 4.0 0.02 0.02 0.02 68 1013.5
20260509135415 66 126 0.0 4.0 0.01 0.01 0.00 64 1013.9
20260509134338 66 158 1.0 5.0 0.00 0.00 0.00 60 1013.7
20260509133342 66 116 3.0 9.0 0.00 0.00 0.00 60 1013.4
20260509132338 66 59 2.0 7.0 0.00 0.00 0.00 60 1013.2
20260509131344 66 66 4.0 9.0 0.00 0.00 0.00 61 1013.1
20260509130344 66 86 3.0 11.0 0.00 0.00 0.00 60 1012.5
20260509125342 66 71 5.0 12.0 0.00 0.00 0.00 59 1012.4
20260509124349 66 46 6.0 9.0 0.00 0.00 0.00 59 1012.5
20260509123355 66 28 5.0 13.0 0.00 0.00 0.00 59 1012.6
20260509122357 66 53 3.0 13.0 0.00 0.00 0.00 59 1013.0
20260509121357 67 65 7.0 12.0 0.00 0.00 0.00 57 1013.3
20260509120343 67 96 4.0 9.0 0.00 0.00 0.00 57 1013.8
20260509115344 66 77 5.0 13.0 0.00 0.00 0.00 56 1014.1
20260509114347 67 105 4.0 12.0 0.00 0.00 0.00 58 1014.4
20260509113352 67 119 4.0 13.0 0.00 0.00 0.00 57 1014.4
20260509112352 67 101 6.0 14.0 0.00 0.00 0.00 57 1014.7
20260509111352 67 70 7.0 13.0 0.00 0.00 0.00 55 1014.6
20260509110349 67 115 2.0 11.0 0.00 0.00 0.00 57 1014.4
20260509105352 67 109 5.0 15.0 0.00 0.00 0.00 58 1014.6
20260509104356 67 109 4.0 9.0 0.00 0.00 0.00 61 1014.5
20260509103358 67 71 4.0 13.0 0.00 0.00 0.00 61 1014.5
20260509102355 67 153 7.0 12.0 0.00 0.00 0.00 63 1014.5
20260509101337 67 63 4.0 14.0 0.00 0.00 0.00 63 1014.4
20260509100340 67 85 2.0 12.0 0.00 0.00 0.00 63 1014.4
20260509095340 67 87 5.0 7.0 0.00 0.00 0.00 64 1014.4
20260509094354 67 78 3.0 13.0 0.00 0.00 0.00 64 1014.3
20260509093357 67 35 6.0 9.0 0.00 0.00 0.00 65 1014.2
20260509092355 67 71 5.0 11.0 0.00 0.00 0.00 66 1014.2
20260509091356 66 111 3.0 9.0 0.00 0.00 0.00 68 1014.0
20260509090338 66 75 6.0 9.0 0.00 0.00 0.00 69 1013.8